Tracking 27420 objects as of 28-May-2023
HD Live streaming from Space Station
objects crossing your sky now

CZ-4 DEB

Track CZ-4 DEB now!
10-day predictions


NORAD ID: 20903
Int'l Code: 1990-081BP
Perigee: 765.4 km
Apogee: 849.4 km
Inclination: 98.5 °
Period: 100.9 minutes
Semi major axis: 7178 km
RCS: 0.005 m2 (small)
Launch date: September 3, 1990
Source: People's Republic of China (PRC)
Launch site: Taiyaun Space Center, China (TSC)

Note: This is SATELLITE DEBRIS
Your satellite tracking list
Your tracking list is empty




NASA's NSSDC Master Catalog

Two Line Element Set (TLE):
1 20903U 90081BP  23147.83451535  .00000590  00000-0  25252-3 0  9996
2 20903  98.4516 171.0847 0058496 130.0779  41.7098 14.27463110694766
Source of the keplerian elements: AFSPC